Time,TemperatureF,DewpointF,PressureIn,WindDirection,WindDirectionDegrees,WindSpeedMPH,WindSpeedGustMPH,Humidity,HourlyPrecipIn,Conditions,Clouds,dailyrainin,SolarRadiationWatts/m^2,SoftwareType,DateUTC
2013-12-05 00:09:00,58.9,56.0,29.55,WSW,242,12.0,15.0,90,0.00,,,0.00,0,weatherlink.com 1.10,2013-12-05 05:09:00,
2013-12-05 00:24:00,58.6,55.0,29.55,SW,226,8.0,19.0,86,0.00,,,0.00,0,weatherlink.com 1.10,2013-12-05 05:24:00,
2013-12-05 00:39:00,57.6,53.0,29.56,WSW,244,14.0,22.0,84,0.00,,,0.00,0,weatherlink.com 1.10,2013-12-05 05:39:00,
2013-12-05 00:54:00,56.7,52.0,29.57,West,272,14.0,19.0,84,0.00,,,0.00,0,weatherlink.com 1.10,2013-12-05 05:54:00,
2013-12-05 01:09:00,56.1,52.0,29.57,WSW,256,5.0,11.0,86,0.00,,,0.00,0,weatherlink.com 1.10,2013-12-05 06:09:00,
2013-12-05 01:24:00,55.5,51.0,29.59,WNW,297,11.0,18.0,85,0.00,,,0.00,0,weatherlink.com 1.10,2013-12-05 06:24:00,
2013-12-05 01:39:00,49.5,46.0,29.61,NW,304,9.0,23.0,87,0.00,,,0.00,0,weatherlink.com 1.10,2013-12-05 06:39:00,
2013-12-05 01:55:00,47.9,44.0,29.61,North,359,7.0,18.0,87,0.00,,,0.00,0,weatherlink.com 1.10,2013-12-05 06:55:00,
2013-12-05 02:10:00,46.9,42.0,29.62,NW,316,8.0,22.0,84,0.00,,,0.00,0,weatherlink.com 1.10,2013-12-05 07:10:00,
2013-12-05 02:25:00,46.1,41.0,29.62,West,262,10.0,18.0,82,0.00,,,0.00,0,weatherlink.com 1.10,2013-12-05 07:25:00,
2013-12-05 02:40:00,45.5,40.0,29.64,SW,231,4.0,17.0,81,0.00,,,0.00,0,weatherlink.com 1.10,2013-12-05 07:40:00,
2013-12-05 02:55:00,44.8,39.0,29.66,West,262,6.0,15.0,81,0.00,,,0.00,0,weatherlink.com 1.10,2013-12-05 07:55:00,
2013-12-05 03:10:00,44.3,39.0,29.67,SW,217,8.0,15.0,81,0.00,,,0.00,0,weatherlink.com 1.10,2013-12-05 08:10:00,
2013-12-05 03:25:00,43.6,38.0,29.67,WSW,246,16.0,17.0,81,0.00,,,0.00,0,weatherlink.com 1.10,2013-12-05 08:25:00,
2013-12-05 03:40:00,42.5,37.0,29.68,WNW,287,9.0,20.0,80,0.00,,,0.00,0,weatherlink.com 1.10,2013-12-05 08:40:00,
2013-12-05 03:55:00,41.1,35.0,29.69,West,270,5.0,15.0,80,0.00,,,0.00,0,weatherlink.com 1.10,2013-12-05 08:55:00,
2013-12-05 04:10:00,40.2,35.0,29.70,WNW,292,6.0,14.0,83,0.00,,,0.00,0,weatherlink.com 1.10,2013-12-05 09:10:00,
2013-12-05 04:25:00,39.7,35.0,29.70,WNW,285,7.0,21.0,84,0.00,,,0.00,0,weatherlink.com 1.10,2013-12-05 09:25:00,
2013-12-05 04:40:00,39.5,35.0,29.71,WSW,247,3.0,18.0,84,0.00,,,0.00,0,weatherlink.com 1.10,2013-12-05 09:40:00,
2013-12-05 04:55:00,38.8,35.0,29.72,West,274,8.0,14.0,86,0.00,,,0.00,0,weatherlink.com 1.10,2013-12-05 09:55:00,
2013-12-05 05:10:00,38.6,35.0,29.72,West,270,6.0,14.0,86,0.00,,,0.00,0,weatherlink.com 1.10,2013-12-05 10:10:00,
2013-12-05 05:25:00,37.7,33.0,29.74,WNW,289,10.0,19.0,84,0.00,,,0.00,0,weatherlink.com 1.10,2013-12-05 10:25:00,
2013-12-05 05:40:00,36.5,32.0,29.75,WSW,249,3.0,16.0,85,0.00,,,0.00,0,weatherlink.com 1.10,2013-12-05 10:40:00,
2013-12-05 05:55:00,36.1,32.0,29.74,NW,317,4.0,13.0,86,0.00,,,0.00,0,weatherlink.com 1.10,2013-12-05 10:55:00,
2013-12-05 06:10:00,36.0,32.0,29.75,NNW,340,5.0,12.0,85,0.00,,,0.00,0,weatherlink.com 1.10,2013-12-05 11:10:00,
2013-12-05 06:26:00,35.8,32.0,29.76,NNW,328,9.0,11.0,85,0.00,,,0.00,0,weatherlink.com 1.10,2013-12-05 11:26:00,
2013-12-05 06:41:00,35.7,32.0,29.77,West,273,8.0,13.0,86,0.00,,,0.00,0,weatherlink.com 1.10,2013-12-05 11:41:00,
2013-12-05 06:56:00,35.0,31.0,29.77,WNW,283,7.0,17.0,84,0.00,,,0.00,0,weatherlink.com 1.10,2013-12-05 11:56:00,
2013-12-05 07:11:00,34.1,30.0,29.79,WNW,303,2.0,16.0,83,0.00,,,0.00,0,weatherlink.com 1.10,2013-12-05 12:11:00,
2013-12-05 07:26:00,33.4,29.0,29.81,WNW,283,7.0,14.0,84,0.00,,,0.00,0,weatherlink.com 1.10,2013-12-05 12:26:00,
2013-12-05 07:41:00,32.6,28.0,29.82,West,270,4.0,16.0,84,0.00,,,0.00,0,weatherlink.com 1.10,2013-12-05 12:41:00,
2013-12-05 07:56:00,32.3,28.0,29.83,SW,225,7.0,14.0,84,0.00,,,0.00,0,weatherlink.com 1.10,2013-12-05 12:56:00,
2013-12-05 08:11:00,32.1,28.0,29.83,SW,233,4.0,12.0,85,0.00,,,0.00,9,weatherlink.com 1.10,2013-12-05 13:11:00,
2013-12-05 08:26:00,31.9,28.0,29.84,West,270,3.0,14.0,86,0.00,,,0.00,14,weatherlink.com 1.10,2013-12-05 13:26:00,
2013-12-05 08:41:00,32.1,28.0,29.86,West,260,0.0,12.0,85,0.00,,,0.00,14,weatherlink.com 1.10,2013-12-05 13:41:00,
2013-12-05 08:56:00,31.5,27.0,29.87,West,264,4.0,13.0,83,0.00,,,0.00,35,weatherlink.com 1.10,2013-12-05 13:56:00,
2013-12-05 09:11:00,31.0,26.0,29.88,WSW,243,10.0,17.0,83,0.00,,,0.00,39,weatherlink.com 1.10,2013-12-05 14:11:00,
2013-12-05 09:26:00,30.8,27.0,29.87,WNW,287,7.0,14.0,84,0.00,,,0.00,40,weatherlink.com 1.10,2013-12-05 14:26:00,
2013-12-05 09:41:00,30.9,26.0,29.88,WSW,243,8.0,17.0,83,0.00,,,0.00,130,weatherlink.com 1.10,2013-12-05 14:41:00,
2013-12-05 10:11:00,30.9,26.0,29.90,WSW,246,7.0,12.0,81,0.00,,,0.00,113,weatherlink.com 1.10,2013-12-05 15:11:00,
2013-12-05 10:26:00,31.0,26.0,29.91,NNW,332,5.0,12.0,81,0.00,,,0.00,192,weatherlink.com 1.10,2013-12-05 15:26:00,
2013-12-05 10:41:00,30.9,25.0,29.92,WNW,289,13.0,16.0,80,0.00,,,0.00,265,weatherlink.com 1.10,2013-12-05 15:41:00,
2013-12-05 10:56:00,30.7,25.0,29.92,West,267,8.0,19.0,79,0.00,,,0.00,192,weatherlink.com 1.10,2013-12-05 15:56:00,
2013-12-05 11:11:00,30.7,25.0,29.93,WSW,250,5.0,18.0,79,0.00,,,0.00,192,weatherlink.com 1.10,2013-12-05 16:11:00,
2013-12-05 11:27:00,30.4,25.0,29.93,SW,221,2.0,16.0,79,0.00,,,0.00,227,weatherlink.com 1.10,2013-12-05 16:27:00,
2013-12-05 11:41:00,30.7,25.0,29.93,SW,221,8.0,17.0,78,0.00,,,0.00,171,weatherlink.com 1.10,2013-12-05 16:41:00,
2013-12-05 11:57:00,30.5,24.0,29.94,WSW,249,4.0,15.0,78,0.00,,,0.00,292,weatherlink.com 1.10,2013-12-05 16:57:00,
2013-12-05 12:12:00,30.6,24.0,29.94,WNW,286,10.0,16.0,77,0.00,,,0.00,279,weatherlink.com 1.10,2013-12-05 17:12:00,
2013-12-05 12:27:00,31.2,25.0,29.93,West,265,9.0,17.0,77,0.00,,,0.00,420,weatherlink.com 1.10,2013-12-05 17:27:00,
2013-12-05 12:42:00,31.5,25.0,29.94,West,268,10.0,13.0,76,0.00,,,0.00,323,weatherlink.com 1.10,2013-12-05 17:42:00,
2013-12-05 13:12:00,31.3,24.0,29.93,NW,314,1.0,12.0,75,0.00,,,0.00,330,weatherlink.com 1.10,2013-12-05 18:12:00,
2013-12-05 13:27:00,30.8,23.0,29.93,NW,314,6.0,14.0,72,0.00,,,0.00,271,weatherlink.com 1.10,2013-12-05 18:27:00,
2013-12-05 13:42:00,30.6,23.0,29.92,West,264,2.0,15.0,74,0.00,,,0.00,232,weatherlink.com 1.10,2013-12-05 18:42:00,
2013-12-05 13:57:00,30.8,23.0,29.94,WSW,246,7.0,13.0,74,0.00,,,0.00,186,weatherlink.com 1.10,2013-12-05 18:57:00,
2013-12-05 14:12:00,30.6,23.0,29.95,WNW,294,6.0,14.0,74,0.00,,,0.00,151,weatherlink.com 1.10,2013-12-05 19:12:00,
2013-12-05 14:27:00,29.9,24.0,29.96,West,280,6.0,16.0,77,0.00,,,0.00,163,weatherlink.com 1.10,2013-12-05 19:27:00,
2013-12-05 14:42:00,29.6,23.0,29.95,WSW,253,11.0,13.0,76,0.00,,,0.00,153,weatherlink.com 1.10,2013-12-05 19:42:00,
2013-12-05 14:57:00,29.6,23.0,29.97,West,267,3.0,11.0,76,0.00,,,0.00,158,weatherlink.com 1.10,2013-12-05 19:57:00,
2013-12-05 15:12:00,29.3,23.0,29.97,WNW,287,4.0,11.0,76,0.00,,,0.00,114,weatherlink.com 1.10,2013-12-05 20:12:00,
2013-12-05 15:27:00,28.9,22.0,29.98,West,280,4.0,12.0,76,0.00,,,0.00,91,weatherlink.com 1.10,2013-12-05 20:27:00,
2013-12-05 15:42:00,28.8,22.0,29.99,NW,317,5.0,13.0,75,0.00,,,0.00,65,weatherlink.com 1.10,2013-12-05 20:42:00,
2013-12-05 15:57:00,28.6,22.0,30.00,West,265,8.0,14.0,75,0.00,,,0.00,49,weatherlink.com 1.10,2013-12-05 20:57:00,
2013-12-05 16:12:00,28.3,21.0,30.01,WSW,251,6.0,12.0,75,0.00,,,0.00,33,weatherlink.com 1.10,2013-12-05 21:12:00,
2013-12-05 16:27:00,28.5,22.0,30.03,NW,316,7.0,12.0,75,0.00,,,0.00,26,weatherlink.com 1.10,2013-12-05 21:27:00,
2013-12-05 16:42:00,28.1,21.0,30.03,SW,232,0.0,9.0,76,0.00,,,0.00,12,weatherlink.com 1.10,2013-12-05 21:42:00,
2013-12-05 16:57:00,27.5,21.0,30.03,West,268,4.0,15.0,76,0.00,,,0.00,9,weatherlink.com 1.10,2013-12-05 21:57:00,
2013-12-05 17:12:00,27.3,21.0,30.03,West,274,4.0,10.0,77,0.00,,,0.00,0,weatherlink.com 1.10,2013-12-05 22:12:00,
2013-12-05 17:27:00,27.1,20.0,30.03,West,278,4.0,12.0,76,0.00,,,0.00,0,weatherlink.com 1.10,2013-12-05 22:27:00,
2013-12-05 17:42:00,27.0,20.0,30.02,West,275,5.0,9.0,76,0.00,,,0.00,0,weatherlink.com 1.10,2013-12-05 22:42:00,
2013-12-05 17:57:00,27.0,21.0,30.03,WSW,258,6.0,9.0,77,0.00,,,0.00,0,weatherlink.com 1.10,2013-12-05 22:57:00,
2013-12-05 18:12:00,27.0,21.0,30.05,West,274,5.0,10.0,77,0.00,,,0.00,0,weatherlink.com 1.10,2013-12-05 23:12:00,
2013-12-05 18:27:00,26.9,20.0,30.06,WSW,258,4.0,11.0,76,0.00,,,0.00,0,weatherlink.com 1.10,2013-12-05 23:27:00,
2013-12-05 18:43:00,27.0,20.0,30.07,SW,230,7.0,9.0,76,0.00,,,0.00,0,weatherlink.com 1.10,2013-12-05 23:43:00,
2013-12-05 18:58:00,26.8,21.0,30.10,West,260,6.0,13.0,77,0.00,,,0.00,0,weatherlink.com 1.10,2013-12-05 23:58:00,
2013-12-05 19:13:00,27.0,20.0,30.10,West,270,4.0,10.0,76,0.00,,,0.00,0,weatherlink.com 1.10,2013-12-06 00:13:00,
2013-12-05 19:28:00,26.9,20.0,30.11,West,272,4.0,10.0,76,0.00,,,0.00,0,weatherlink.com 1.10,2013-12-06 00:28:00,
2013-12-05 19:43:00,26.5,20.0,30.09,West,268,3.0,12.0,76,0.00,,,0.00,0,weatherlink.com 1.10,2013-12-06 00:43:00,
2013-12-05 19:58:00,26.2,20.0,30.09,WNW,283,3.0,8.0,76,0.00,,,0.00,0,weatherlink.com 1.10,2013-12-06 00:58:00,
2013-12-05 20:13:00,26.0,19.0,30.09,WNW,290,3.0,12.0,76,0.00,,,0.00,0,weatherlink.com 1.10,2013-12-06 01:13:00,
2013-12-05 20:28:00,26.1,19.0,30.11,WNW,292,2.0,10.0,75,0.00,,,0.00,0,weatherlink.com 1.10,2013-12-06 01:28:00,
2013-12-05 20:43:00,25.9,19.0,30.12,WNW,284,7.0,12.0,75,0.00,,,0.00,0,weatherlink.com 1.10,2013-12-06 01:43:00,
2013-12-05 20:58:00,25.8,19.0,30.13,West,259,1.0,10.0,76,0.00,,,0.00,0,weatherlink.com 1.10,2013-12-06 01:58:00,
2013-12-05 21:13:00,25.7,19.0,30.11,West,271,2.0,9.0,76,0.00,,,0.00,0,weatherlink.com 1.10,2013-12-06 02:13:00,
2013-12-05 21:28:00,25.5,19.0,30.13,WNW,284,9.0,11.0,76,0.00,,,0.00,0,weatherlink.com 1.10,2013-12-06 02:28:00,
2013-12-05 21:43:00,25.5,19.0,30.14,WNW,295,5.0,9.0,76,0.00,,,0.00,0,weatherlink.com 1.10,2013-12-06 02:43:00,
2013-12-05 21:58:00,25.6,19.0,30.14,WNW,285,4.0,11.0,76,0.00,,,0.00,0,weatherlink.com 1.10,2013-12-06 02:58:00,
2013-12-05 22:13:00,25.4,19.0,30.14,WNW,288,3.0,8.0,77,0.00,,,0.00,0,weatherlink.com 1.10,2013-12-06 03:13:00,
2013-12-05 22:28:00,25.2,19.0,30.13,WNW,288,4.0,10.0,77,0.00,,,0.00,0,weatherlink.com 1.10,2013-12-06 03:28:00,
2013-12-05 22:43:00,25.1,19.0,30.13,NW,310,5.0,11.0,77,0.00,,,0.00,0,weatherlink.com 1.10,2013-12-06 03:43:00,
2013-12-05 22:58:00,25.2,19.0,30.14,WNW,291,2.0,10.0,77,0.00,,,0.00,0,weatherlink.com 1.10,2013-12-06 03:58:00,
2013-12-05 23:13:00,25.2,19.0,30.14,NW,308,7.0,11.0,77,0.00,,,0.00,0,weatherlink.com 1.10,2013-12-06 04:13:00,
2013-12-05 23:28:00,25.2,19.0,30.16,West,276,7.0,10.0,77,0.00,,,0.00,0,weatherlink.com 1.10,2013-12-06 04:28:00,
2013-12-05 23:43:00,25.3,19.0,30.16,NW,305,4.0,9.0,77,0.00,,,0.00,0,weatherlink.com 1.10,2013-12-06 04:43:00,
2013-12-05 23:58:00,25.3,19.0,30.15,WNW,284,5.0,11.0,77,0.00,,,0.00,0,weatherlink.com 1.10,2013-12-06 04:58:00,